Marshfield, WI

5:02 AM CDT on October 20, 2017 (GMT -0500)
Marshfield Municipal

Weather History for KMFI - February, 2014

Change the Weather History Date:

Thursday, February 27, 2014

  Actual Average Record
Temperature  
Mean Temperature -6 °F -  
Max Temperature 1 °F 35 °F 55 °F (2016)
Min Temperature -16 °F 14 °F -18 °F (1925)
Degree Days  
Heating Degree Days 71    
Moisture  
Dew Point -19 °F    
Average Humidity 57    
Maximum Humidity 75    
Minimum Humidity 40    
Precipitation  
Precipitation 0.00 in - - ()
Sea Level Pressure  
Sea Level Pressure 30.03 in    
Wind  
Wind Speed 18 mph (NW)    
Max Wind Speed 28 mph    
Max Gust Speed 33 mph    
Visibility 8 miles    
Events Snow    
Averages and records for this station are not official NWS values.
T = Trace of Precipitation, MM = Missing Value Source: NWS Daily Summary

Daily Weather History Graph

Daily Weather History Graph

Search for Another Location

Airport or City:

Trip Planner

Search our weather history database for the weather conditions in past years. The results will help you decide how hot, cold, wet, or windy it might be!

Date:

Astronomy

Feb. 27, 2014 Rise Set
Actual Time 6:41 AM CST 5:45 PM CST
Civil Twilight 6:12 AM CST 6:15 PM CST
Nautical Twilight 5:38 AM CST 6:49 PM CST
Astronomical Twilight 5:04 AM CST 7:22 PM CST
Moon 5:17 AM CST (2/27) 4:09 PM CST (2/27)
Length of Visible Light 12h 03m
Length of Day
11h 04m
Waning Crescent, 4% of the Moon is Illuminated
Feb 27
Waning Crescent
Mar 1
New
Mar 8
First Quarter
Mar 16
Full
Mar 23
Last Quarter

Hourly Weather History & Observations

Time (CST) Temp. Windchill Dew Point Humidity Pressure Visibility Wind Dir Wind Speed Gust Speed Precip Events Conditions
12:02 AM 1.0 °F -23.2 °F -5.1 °F 75% 29.64 in 0.5 mi NNW 26.5 mph 33.4 mph 0.00 in Snow Snow
12:12 AM -0.0 °F -24.3 °F -8.0 °F 69% 29.66 in 1.2 mi NNW 25.3 mph 33.4 mph 0.00 in   Mostly Cloudy
12:22 AM -0.0 °F -25.1 °F -11.0 °F 60% 29.66 in 2.0 mi NNW 27.6 mph 33.4 mph 0.00 in   Scattered Clouds
12:30 AM -0.0 °F -24.3 °F -11.9 °F 57% 29.67 in 1.8 mi NNW 25.3 mph 33.4 mph 0.00 in   Partly Cloudy
12:45 AM -0.9 °F -24.1 °F -13.0 °F 57% 29.68 in 3.0 mi NNW 21.9 mph - 0.00 in   Clear
12:54 AM -2.0 °F -25.5 °F -13.0 °F 60% 29.79 in 5.0 mi NNW 21.9 mph - 0.00 in   Haze
1:54 AM -4.0 °F -27.6 °F -16.1 °F 56% 29.84 in 5.0 mi NW 20.7 mph 31.1 mph N/A   Haze
2:54 AM -6.0 °F -28.4 °F -17.0 °F 59% 29.88 in 9.0 mi NW 17.3 mph - N/A   Clear
3:54 AM -8.0 °F -33.9 °F -18.0 °F 61% 29.93 in 6.0 mi NW 23.0 mph - N/A   Haze
4:54 AM -9.9 °F -32.1 °F -20.0 °F 61% 29.98 in 10.0 mi NW 15.0 mph - N/A   Clear
5:54 AM -11.0 °F -36.2 °F -20.9 °F 62% 30.02 in 10.0 mi NW 19.6 mph - N/A   Clear
6:54 AM -13.0 °F -35.2 °F -23.1 °F 61% 30.06 in 10.0 mi NW 13.8 mph - N/A   Clear
7:54 AM -11.9 °F -35.4 °F -22.0 °F 61% 30.10 in 10.0 mi NW 16.1 mph - N/A   Clear
8:54 AM -11.0 °F -34.2 °F -20.9 °F 62% 30.13 in 10.0 mi NW 16.1 mph - N/A   Clear
9:54 AM -9.0 °F -30.9 °F -20.0 °F 59% 30.15 in 10.0 mi NW 15.0 mph - N/A   Clear
10:54 AM -7.1 °F -25.9 °F -18.9 °F 56% 30.17 in 10.0 mi WNW 11.5 mph - N/A   Clear
11:54 AM -6.0 °F -22.6 °F -18.0 °F 56% 30.18 in 10.0 mi West 9.2 mph - N/A   Clear
12:54 PM -4.0 °F -20.2 °F -17.0 °F 54% 30.17 in 10.0 mi WNW 9.2 mph - N/A   Clear
1:54 PM -2.9 °F -20.8 °F -22.0 °F 40% 30.18 in 10.0 mi West 11.5 mph - N/A   Clear
2:54 PM -0.9 °F -16.4 °F -20.0 °F 40% 30.18 in 10.0 mi WNW 9.2 mph - N/A   Clear
3:54 PM -0.9 °F -16.4 °F -20.0 °F 40% 30.17 in 10.0 mi NW 9.2 mph - N/A   Clear
4:54 PM -2.0 °F -17.7 °F -18.9 °F 45% 30.18 in 10.0 mi NNW 9.2 mph - N/A   Clear
5:54 PM -6.0 °F -16.9 °F -20.9 °F 49% 30.19 in 10.0 mi NNW 4.6 mph - N/A   Clear
6:54 PM -9.9 °F -21.5 °F -23.1 °F 52% 30.21 in 10.0 mi NNW 4.6 mph - N/A   Clear
7:54 PM -9.0 °F -20.4 °F -24.0 °F 48% 30.20 in 10.0 mi NW 4.6 mph - N/A   Clear
8:54 PM -11.9 °F -21.5 °F -24.0 °F 55% 30.21 in 10.0 mi NW 3.5 mph - N/A   Clear
9:54 PM -13.0 °F - -25.1 °F 55% 30.22 in 10.0 mi Calm Calm - N/A   Clear
10:54 PM -13.0 °F - -25.1 °F 55% 30.21 in 10.0 mi Calm Calm - N/A   Clear
11:54 PM -16.1 °F - -22.0 °F 74% 30.21 in 10.0 mi Calm Calm - N/A   Clear